Regional Weather Roundup
Issued by NWS

Home | Current Version | Previous Version | Graphics & Text | Print | Product List | Glossary On
Versions: 1 2 3 4 5 6 7 8 9 10 11 12 13 14 15 16 17 18 19 20 21 22 23 24 25 26 27 28 29 30 31 32 33 34 35 36 37 38 39 40 41 42 43 44 45 46 47 48 49 50
000
ASUS44 KMEG 151110
RWRTN
TENNESSEE HOURLY STATE WEATHER ROUNDUP
NATIONAL WEATHER SERVICE MEMPHIS TN
600 AM CDT TUE APR 15 2014

TNZ002-004-019-021-049-052-054-088>092-151200-
WEST TENNESSEE

CITY           SKY/WX    TMP DP  RH WIND       PRES   REMARKS
MEMPHIS INTL   PTCLDY    36  26  67 N13G21    30.13R WCI  27
NWS MEMPHIS      N/A     35 N/A N/A MISG        N/A
JACKSON        FLURRIES  36  25  64 N17G24    30.10R WCI  26
DYERSBURG      CLEAR     36  19  51 N12G20    30.14R WCI  27
UNION CITY     CLEAR     32  25  74 N10       30.10R WCI  24
PARIS          MOCLDY    31  24  75 NW10      30.07R WCI  22
LEXINGTON      CLOUDY    36  30  80 N13       30.03R WCI  27
SAVANNAH       CLOUDY    37  32  82 N16       30.04R WCI  27
$$

TNZ008-025-027-028-033-062-065-066-151200-
NORTH MIDDLE TENNESSEE

CITY           SKY/WX    TMP DP  RH WIND       PRES   REMARKS
NASHVILLE      LGT RAIN  36  34  92 NW10      30.00R WCI  28
DICKSON        CLOUDY    34  30  86 NW14      30.00R WCI  24
PORTLAND       CLOUDY    34  34 100 NW12      29.96R WCI  25
CLARKSVILLE    CLOUDY    36  30  79 NW16G24   30.03R WCI  26
SMYRNA         LGT RAIN  36  35  96 N15       30.00R WCI  27
MURFREESBORO   CLOUDY    36  35  96 N8        29.98R WCI  30
LIVINGSTON     CLOUDY    33  32  96 N9        29.89S WCI  25
GALLATIN       CLOUDY    34  33  96 NW8G23    29.98R WCI  27
CROSSVILLE     LGT RAIN  41  35  79 N12       29.84R
$$

TNZ061-075-076-078-094-096-097-151200-
SOUTH MIDDLE TENNESSEE

CITY           SKY/WX    TMP DP  RH WIND       PRES   REMARKS
LEWISBURG      CLOUDY    36  34  92 N14       29.97R WCI  27
FAYETTEVILLE   CLOUDY    36  35  96 N14       29.92R WCI  27
TULLAHOMA      CLOUDY    34  34 100 N16       29.92R WCI  23
WINCHESTER     CLOUDY    37  36  93 NW12      29.93R WCI  30
MCMINNVILLE    CLOUDY    37  36  93 NW12      29.93R WCI  30
COLUMBIA       MOCLDY    36  36 100 N7        29.98R WCI  30
SHELBYVILLE    CLOUDY    36  36 100 NW10      29.97R WCI  28
$$

TNZ017-018-042-046-047-151200-
NORTHEAST TENNESSEE

CITY           SKY/WX    TMP DP  RH WIND       PRES   REMARKS
TRI CITIES     CLOUDY    59  57  93 W8        29.68R
ELIZABETHTON   MOSUNNY   57  57 100 CALM      29.66F
$$

TNZ012-013-036-069-073-074-151200-
CENTRAL EAST TENNESSEE

CITY           SKY/WX    TMP DP  RH WIND       PRES   REMARKS
KNOXVILLE      RAIN      47  46  97 N9        29.77R FOG
OAK RIDGE      LGT RAIN  47  43  86 N5        29.79R
$$

TNZ083-085-099-151200-
SOUTHEAST TENNESSEE

CITY           SKY/WX    TMP DP  RH WIND       PRES   REMARKS
CHATTANOOGA    LGT RAIN  46  42  86 N12       29.82R FOG
$$

SKY/WX REPORTED AS FAIR MEANS FEW OR NO CLOUDS BELOW
12 THOUSAND FEET.




USA.gov is the U.S. government's official web portal to all federal, state and local government web resources and services.